Powrót do katalogu

CZ-4B DEB

AktywnyPO
NORAD 44589·DEBRIS·🇨🇳 China

Wystrzelony Oct 14, 1999 z Taiyuan Satellite Launch Center

Loading…

Następne Przeloty (najbliższe 24 godziny)

TLE

ŚwieżeSource: Space-Track

Epoka: Sep 14, 2026, 11:29 UTC

1 44589U 99057TB  26257.47880105  .00000347  00000-0  55928-4 0  9992
2 44589  98.7582 144.6971 0083157  94.1037 266.9680 14.76444286688837

Śledź CZ-4B DEB w czasie rzeczywistym z AllMySat

Download on the App Store